METLOCID,DATE_TIME,AVG_WSPD,STDDEV_WSPD,MIN_WSPD,MAX_WSPD,N_WSPD
HOEM,11/1/87,2.808515284,1.136927406,0.76,7.96,229
HOEM,12/1/87,3.16775641,1.197417422,0.99,6.05,156
HOEM,1/1/88,,,,,0
HOEM,2/1/88,,,,,0
HOEM,3/1/88,,,,,0
HOEM,4/1/88,,,,,0
HOEM,5/1/88,,,,,0
HOEM,6/1/88,,,,,0
HOEM,7/1/88,,,,,0
HOEM,8/1/88,,,,,0
HOEM,9/1/88,,,,,0
HOEM,10/1/88,,,,,0
HOEM,11/1/88,,,,,0
HOEM,12/1/88,2.952413793,0.950177668,1.34,5.41,116
HOEM,1/1/89,2.789032258,1.018182339,0.94,6.2,186
HOEM,2/1/89,1.864166667,1.14424905,0.57,6.44,168
HOEM,3/1/89,2.058010753,1.83306974,0.61,9.91,186
HOEM,4/1/89,2.584111111,2.690540181,0.62,10.34,180
HOEM,5/1/89,2.525376344,2.672591438,0.57,11.95,186
HOEM,6/1/89,1.717611111,1.786758672,0.58,9.58,180
HOEM,7/1/89,3.881505376,3.558170027,0.68,13.77,186
HOEM,8/1/89,3.052956989,3.346625952,0.65,12.52,186
HOEM,9/1/89,3.487722222,3.363301755,0.76,13.3,180
HOEM,10/1/89,4.377258065,3.424843655,0.81,15.39,186
HOEM,11/1/89,3.210777778,1.666008328,0.65,8.26,180
HOEM,12/1/89,2.959086022,1.044176501,1.11,7.36,186
HOEM,1/1/90,2.674354839,1.046414141,0.89,5.85,186
HOEM,2/1/90,2.049821429,1.425200258,0.57,7.58,168
HOEM,3/1/90,2.349301075,2.38146447,0.47,10.39,186
HOEM,4/1/90,3.234166667,3.216817344,0.56,12.33,180
HOEM,5/1/90,1.917634409,2.180180701,0.59,10.48,186
HOEM,6/1/90,2.936611111,2.89410809,0.66,10.8,180
HOEM,7/1/90,1.738333333,1.667241748,0.63,9.24,186
HOEM,8/1/90,3.355698925,3.719429453,0.56,13.93,186
HOEM,9/1/90,2.890222222,3.72335164,0.66,16.3,180
HOEM,10/1/90,2.14844086,1.802739729,0.45,9.88,186
HOEM,11/1/90,2.481666667,1.331055993,0.67,8.45,180
HOEM,12/1/90,3.032473118,1.016575764,0.96,6.3,186
HOEM,1/1/91,2.736182796,1.145801713,0.83,6.86,186
HOEM,2/1/91,2.724166667,2.13155208,0.5,10.7,168
HOEM,3/1/91,2.775483871,2.638196565,0.46,11.15,186
HOEM,4/1/91,3.306388889,3.679922085,0.45,16.91,180
HOEM,5/1/91,2.984677419,3.334531233,0.45,12.33,186
HOEM,6/1/91,3.2195,3.374618584,0.51,16.2,180
HOEM,7/1/91,2.467473118,2.860762809,0.48,11.55,186
HOEM,8/1/91,2.366182796,2.480684506,0.53,10.17,186
HOEM,9/1/91,4.316666667,3.573910898,0.52,13.02,180
HOEM,10/1/91,2.387204301,1.968632048,0.56,8.78,186
HOEM,11/1/91,3.6045,1.949021893,0.67,8.45,180
HOEM,12/1/91,2.907311828,1.254389603,0.67,7.95,186
HOEM,1/1/92,2.835215054,1.625518198,0.47,9.37,186
HOEM,2/1/92,1.726436782,1.24673676,0.46,6.72,174
HOEM,3/1/92,2.311182796,2.365434124,0.48,10.43,186
HOEM,4/1/92,2.107944444,2.385666626,0.55,11.57,180
HOEM,5/1/92,1.662204301,1.665657887,0.45,10.45,186
HOEM,6/1/92,2.689388889,2.69208257,0.63,10.87,180
HOEM,7/1/92,3.57516129,3.248492245,0.55,12.17,186
HOEM,8/1/92,3.074784946,3.390342278,0.54,16.41,186
HOEM,9/1/92,3.814,3.750352773,0.46,13.14,180
HOEM,10/1/92,1.679408602,1.591644798,0.48,9.52,186
HOEM,11/1/92,2.883944444,1.846125188,0.66,10.87,180
HOEM,12/1/92,3.027903226,1.18115766,0.72,7.37,186
HOEM,1/1/93,2.674301075,1.525897094,0.6,10.24,186
HOEM,2/1/93,3.337916667,2.419520875,0.55,10.04,168
HOEM,3/1/93,2.489193548,2.499022273,0.45,10.23,186
HOEM,4/1/93,3.199,3.220749089,0.45,14.38,180
HOEM,5/1/93,1.946451613,2.558080845,0.47,12.35,186
HOEM,6/1/93,4.675444444,4.218247316,0.55,14.36,180
HOEM,7/1/93,4.687903226,4.174171601,0.56,13.97,186
HOEM,8/1/93,2.519462366,2.950120425,0.5,13.4,186
HOEM,9/1/93,2.877277778,3.466106735,0.52,19.06,180
HOEM,10/1/93,3.285698925,3.798705156,0.45,16.99,186
HOEM,11/1/93,2.570444444,1.268559127,0.51,6.53,180
HOEM,12/1/93,2.555709796,1.463398546,0.1,9.8,1909
HOEM,1/1/94,2.568102734,1.258697699,0,8,2414
HOEM,2/1/94,1.661607143,1.704425552,0.3,9.1,224
HOEM,3/1/94,1.805241935,2.334205415,0.3,9.9,248
HOEM,4/1/94,2.270416667,2.639069158,0.3,10.6,240
HOEM,5/1/94,2.672983871,3.462423499,0.3,18.9,248
HOEM,6/1/94,3.2925,3.749726071,0.4,13.4,240
HOEM,7/1/94,2.789919355,3.18811355,0.5,13.3,248
HOEM,8/1/94,2.526209677,3.086787592,0.4,12.9,248
HOEM,9/1/94,2.165,3.097647913,0.5,20.8,240
HOEM,10/1/94,2.463709677,2.648300492,0.2,12.2,248
HOEM,11/1/94,2.802797203,2.132377634,0.3,10.5,143
HOEM,12/1/94,3.075,1.594952821,0,9.5,252
HOEM,1/1/95,2.54790489,1.300986836,0,7.4,2229
HOEM,2/1/95,2.997931548,2.97879374,0,15.08,2016
HOEM,3/1/95,1.885922939,2.652108647,0,13.6,2232
HOEM,4/1/95,2.253555556,3.396331392,0,15.82,2160
HOEM,5/1/95,2.393709677,3.617537942,0,18.86,2232
HOEM,6/1/95,3.575231481,4.414259112,0,16.87,2160
HOEM,7/1/95,1.907625448,2.753018539,0,13.34,2232
HOEM,8/1/95,3.818982975,4.662176838,0,16.04,2232
HOEM,9/1/95,2.493333333,3.365293422,0,14.52,2160
HOEM,10/1/95,2.531357527,3.052863965,0,13.75,2232
HOEM,11/1/95,3.552690745,2.590218272,0,11.81,2215
HOEM,12/1/95,2.832553763,1.429771045,0,8.19,2976
HOEM,1/1/96,3.097324992,1.789719906,0,10,2957
HOEM,2/1/96,2.04450431,1.711678715,0,8.1,2784
HOEM,3/1/96,2.664549731,3.52138485,0,19.3,2976
HOEM,4/1/96,2.699340278,3.39462362,0,15.1,2880
HOEM,5/1/96,1.637466398,2.580967996,0,12.2,2976
HOEM,6/1/96,2.918020833,3.83218372,0,14.4,2880
HOEM,7/1/96,3.339650538,4.021570463,0,14.3,2976
HOEM,8/1/96,3.163575269,3.628256593,0,15.7,2976
HOEM,9/1/96,2.045625,2.984948049,0,14.5,2880
HOEM,10/1/96,2.139549731,2.617917255,0,13,2976
HOEM,11/1/96,2.629375,1.850080486,0,12.9,2880
HOEM,12/1/96,2.905981183,1.480968742,0,11.5,2976
HOEM,1/1/97,2.420712845,1.292528673,0,7.5,2974
HOEM,2/1/97,2.158928571,2.319897085,0,13.9,2688
HOEM,3/1/97,1.076915323,1.443281052,0,8.8,2976
HOEM,4/1/97,1.486006944,2.294529344,0,13.2,2880
HOEM,5/1/97,4.345997286,4.248591166,0,16.6,2948
HOEM,6/1/97,3.771215278,4.309257374,0,16.2,2880
HOEM,7/1/97,2.601255088,3.511255128,0,14.8,2948
HOEM,8/1/97,2.508971774,3.454602116,0,17.2,2976
HOEM,9/1/97,2.913854167,3.526699493,0,13.7,2880
HOEM,10/1/97,3.550134409,3.630233455,0,16.1,2976
HOEM,11/1/97,3.768823939,2.433285729,0,13.1,2874
HOEM,12/1/97,2.917271505,1.4634634,0,7.5,2976
HOEM,1/1/98,2.585853495,1.471731894,0,8.8,2976
HOEM,2/1/98,2.545498512,2.643517011,0,12.9,2688
HOEM,3/1/98,1.992806244,2.723984361,0,11.5,2947
HOEM,4/1/98,2.7025,3.652957615,0,15.8,2880
HOEM,5/1/98,3.29280914,4.081470575,0,17.8,2976
HOEM,6/1/98,4.028194444,4.296832384,0,19,2880
HOEM,7/1/98,3.328830645,3.984460839,0,20.8,2976
HOEM,8/1/98,2.950571237,4.471462417,0,22.1,2976
HOEM,9/1/98,1.5425,2.448393225,0,15.3,2880
HOEM,10/1/98,3.102923387,3.40304187,0,16.1,2976
HOEM,11/1/98,2.979506773,2.119925237,0,11.3,2879
HOEM,12/1/98,3.793413978,2.337566854,0.1,12.8,2976
HOEM,1/1/99,2.631384409,1.557661326,0,8.7,2976
HOEM,2/1/99,1.858147321,1.56567688,0,9.9,2688
HOEM,3/1/99,1.634341398,2.329195794,0,10.8,2976
HOEM,4/1/99,1.808958333,2.599255035,0,11.9,2880
HOEM,5/1/99,2.469489247,3.304953737,0,15,2976
HOEM,6/1/99,2.596979167,3.376023572,0,14.5,2880
HOEM,7/1/99,3.535416667,3.846744213,0,14.3,2976
HOEM,8/1/99,2.277385753,3.234642737,0,12.9,2976
HOEM,9/1/99,2.722291667,3.527197404,0,14.2,2880
HOEM,10/1/99,3.07512605,4.053464952,0,22.8,2975
HOEM,11/1/99,3.056145833,1.971487557,0.2,10.7,2880
HOEM,12/1/99,3.1375,1.562331268,0,11,2976
HOEM,1/1/00,2.971606183,1.631510176,0,9.4,2976
HOEM,2/1/00,2.643678161,2.156723998,0,12.8,2784
HOEM,3/1/00,2.217271505,3.041780341,0,14.9,2976
HOEM,4/1/00,2.328229167,2.867663251,0,13.4,2880
HOEM,5/1/00,1.564784946,2.119307756,0,11.6,2976
HOEM,6/1/00,1.920659722,2.724444601,0,13.4,2880
HOEM,7/1/00,4.790456989,4.518824454,0,19.2,2976
HOEM,8/1/00,4.276492537,4.569707464,0,15.6,2948
HOEM,9/1/00,3.584652778,4.352145976,0,18.7,2880
HOEM,10/1/00,1.801041667,2.342971379,0,13.8,2976
HOEM,11/1/00,3.796315607,2.425910562,0,11.8,2877
HOEM,12/1/00,3.057862903,1.338349166,0.2,8.4,2976
HOEM,1/1/01,2.518481183,1.269283333,0,9.1,2976
HOEM,2/1/01,2.198735119,1.733437837,0,10.3,2688
HOEM,3/1/01,1.548252688,2.435818908,0,17.5,2976
HOEM,4/1/01,2.557534722,3.319190493,0,14.9,2880
HOEM,5/1/01,3.383870968,3.969648961,0,15.7,2976
HOEM,6/1/01,3.78125,3.984925028,0,16,2880
HOEM,7/1/01,3.693682796,4.259182122,0,14.8,2976
HOEM,8/1/01,1.643346774,2.253214941,0,11.8,2976
HOEM,9/1/01,2.184895833,2.813679985,0,13.8,2880
HOEM,10/1/01,3.103259409,3.301933143,0,14,2976
HOEM,11/1/01,2.979756944,1.791505741,0,10,2880
HOEM,12/1/01,3.241028226,1.805042466,0,12.5,2976
HOEM,1/1/02,3.13976247,2.483819658,0,15.3,2947
HOEM,2/1/02,2.442373512,1.957311796,0,9.9,2688
HOEM,3/1/02,2.514616935,2.812014689,0,12.5,2976
HOEM,4/1/02,3.048020833,3.649243914,0,15.7,2880
HOEM,5/1/02,3.354166667,3.473797638,0,13.2,2976
HOEM,6/1/02,1.954583333,2.678361927,0,14.6,2880
HOEM,7/1/02,2.450907258,3.414621923,0,15.7,2976
HOEM,8/1/02,2.384005376,3.291833473,0,15.3,2976
HOEM,9/1/02,2.151701389,2.861287263,0,13,2880
HOEM,10/1/02,1.790120968,2.092060185,0,11.2,2976
HOEM,11/1/02,2.834409722,2.323408821,0,17,2880
HOEM,12/1/02,2.991834677,1.364103003,0.1,8.8,2976
HOEM,1/1/03,2.721841398,1.542631203,0,8.9,2976
HOEM,2/1/03,1.930431548,1.409470163,0,9.7,2688
HOEM,3/1/03,1.924395161,2.657957067,0,12.3,2976
HOEM,4/1/03,1.274930556,2.093605772,0,14,2880
HOEM,5/1/03,4.25625,4.009604593,0,14.3,2976
HOEM,6/1/03,1.9440625,2.363553179,0,14.3,2880
HOEM,7/1/03,3.924798387,3.88364335,0,13.7,2976
HOEM,8/1/03,1.863944892,2.421003423,0,12.9,2976
HOEM,9/1/03,3.623993056,4.151643258,0,18.2,2880
HOEM,10/1/03,3.509072581,3.223740457,0,15.6,2976
HOEM,11/1/03,2.582847222,1.607516714,0,9.2,2880
HOEM,12/1/03,2.794590054,1.594691077,0,9.7,2976
HOEM,1/1/04,2.53610084,1.192430561,0,7.5,2975
HOEM,2/1/04,1.677873563,1.281611708,0,6.7,2784
HOEM,3/1/04,1.16750672,1.494416263,0,11.9,2976
HOEM,4/1/04,1.6884375,2.203675997,0,12.1,2880
HOEM,5/1/04,3.021135753,3.695287963,0,14.1,2976
HOEM,6/1/04,4.561111111,5.330307626,0,22.7,2880
HOEM,7/1/04,2.189146505,2.77897626,0,14.4,2976
HOEM,8/1/04,3.550436828,4.528948509,0.1,22.2,2976
HOEM,9/1/04,1.77125,2.224911806,0,11.6,2880
HOEM,10/1/04,2.194086022,2.685724221,0,12.9,2976
HOEM,11/1/04,3.217326389,2.090444146,0,10.2,2880
HOEM,12/1/04,2.628326613,1.474151751,0,11.2,2976
HOEM,1/1/05,2.326545699,1.178245796,0,7,2976
HOEM,2/1/05,1.991741071,1.647440149,0,8.4,2688
HOEM,3/1/05,1.734072581,2.091314173,0,9.8,2976
HOEM,4/1/05,1.218333333,1.52793281,0,11.8,2880
HOEM,5/1/05,3.054704301,3.290558643,0,13.3,2976
HOEM,6/1/05,3.187743056,3.973665366,0,15.2,2880
HOEM,7/1/05,2.634408602,3.878632548,0,21.5,2976
HOEM,8/1/05,2.975638441,3.631571356,0,18,2976
HOEM,9/1/05,2.245694444,2.757281346,0,15.7,2880
HOEM,10/1/05,3.550907258,3.293602536,0,14.6,2976
HOEM,11/1/05,2.984305556,1.81278607,0,10,2880
HOEM,12/1/05,2.773353495,1.347365551,0,9.7,2976
HOEM,1/1/06,2.496236559,1.270772656,0,9.6,2976
HOEM,2/1/06,1.813058036,1.49590082,0,8.2,2688
HOEM,3/1/06,1.846169355,2.3668407,0,17.1,2976
HOEM,4/1/06,1.526875,2.228304757,0,14.1,2880
HOEM,5/1/06,2.155241935,2.801429301,0,17.6,2976
HOEM,6/1/06,3.656527778,3.917636633,0,15.3,2880
HOEM,7/1/06,1.807022849,2.653351977,0,16,2976
HOEM,8/1/06,3.067842742,3.325595798,0,13,2976
HOEM,9/1/06,3.399270833,3.90995774,0,13.7,2880
HOEM,10/1/06,1.611592742,1.936706904,0,10.2,2976
HOEM,11/1/06,2.085729167,1.499473506,0,9.8,2880
HOEM,12/1/06,3.122513441,1.567526725,0.2,11.4,2976
HOEM,1/1/07,2.661458333,1.584164204,0,8.9,2976
HOEM,2/1/07,2.133630952,1.575002409,0,9.8,2688
HOEM,3/1/07,2.071068548,2.395147686,0,11.4,2976
HOEM,4/1/07,2.674131944,3.624738571,0,16,2880
HOEM,5/1/07,3.098353495,3.928115503,0,19.9,2976
HOEM,6/1/07,3.6046875,3.481463179,0.1,16.3,2880
HOEM,7/1/07,3.924126344,3.905729802,0,13.7,2976
HOEM,8/1/07,3.838004032,4.052986522,0,18.7,2976
HOEM,9/1/07,3.573784722,3.664967539,0,16.1,2880
HOEM,10/1/07,2.037600806,2.260650793,0,11.9,2976
HOEM,11/1/07,2.446006944,1.999982119,0,11.9,2880
HOEM,12/1/07,2.916369748,1.422354054,0,8.8,2975
HOEM,1/1/08,2.589616935,1.311153083,0,7.1,2976
HOEM,2/1/08,2.528053161,1.813892079,0,8.9,2784
HOEM,3/1/08,1.440557796,2.037305411,0,14.3,2976
HOEM,4/1/08,2.335659722,2.988369707,0,11.9,2880
HOEM,5/1/08,2.65672043,3.308114068,0,13.9,2976
HOEM,6/1/08,3.763020833,3.897663273,0,20,2880
HOEM,7/1/08,2.430577957,3.288895368,0,14.4,2976
HOEM,8/1/08,1.866364247,2.387170405,0,14.3,2976
HOEM,9/1/08,4.890659722,3.639831112,0.1,14.8,2880
HOEM,10/1/08,1.865322581,1.957832903,0,9.7,2976
HOEM,11/1/08,2.840798611,1.829646271,0,11.6,2880
HOEM,12/1/08,3.125537634,1.602084686,0,9.8,2976
HOEM,1/1/09,2.341061828,1.390273807,0,10,2976
HOEM,2/1/09,1.539583333,1.192294503,0,8.8,2688
HOEM,3/1/09,1.229603495,1.520272193,0,9.2,2976
HOEM,4/1/09,3.389965278,3.59512425,0,15.2,2880
HOEM,5/1/09,2.766196237,3.327960455,0,13.7,2976
HOEM,6/1/09,3.430208333,3.756133892,0,14,2880
HOEM,7/1/09,2.503528226,2.975683691,0,12.4,2976
HOEM,8/1/09,2.868212366,3.348380915,0,14.4,2976
HOEM,9/1/09,3.892673611,4.261102019,0,16.6,2880
HOEM,10/1/09,1.988205645,2.104771372,0,11.3,2976
HOEM,11/1/09,2.803993056,2.31568523,0,12.2,2880
HOEM,12/1/09,2.626142473,1.275349498,0,8.4,2976
HOEM,1/1/10,2.335080645,1.216629534,0,7.9,2976
HOEM,2/1/10,1.996056548,1.773536833,0,10.5,2688
HOEM,3/1/10,1.213810484,1.363374754,0,9.2,2976
HOEM,4/1/10,2.275138889,2.829808332,0,11.9,2880
HOEM,5/1/10,2.398487903,2.999400679,0,12,2976
HOEM,6/1/10,2.1796875,2.819964411,0,12.7,2880
HOEM,7/1/10,2.981653226,3.527891187,0,15.3,2976
HOEM,8/1/10,2.937836022,3.784266396,0,19,2976
HOEM,9/1/10,2.142881944,2.784393943,0,13.1,2880
HOEM,10/1/10,2.402419355,2.787552318,0,18.9,2976
HOEM,11/1/10,3.775686002,2.552975755,0,19.6,2879
HOEM,12/1/10,3.282209868,2.17631012,0,16,2878
HOEM,1/1/11,2.199395161,1.155066139,0,7.8,2976
HOEM,2/1/11,2.19311756,2.187325424,0,11.4,2688
HOEM,3/1/11,2.204435484,2.65497671,0,12.3,2976
HOEM,4/1/11,3.095555556,3.760276788,0,16.2,2880
HOEM,5/1/11,2.821875,3.543726659,0,15.3,2976
HOEM,6/1/11,3.289652778,3.828234246,0,14.5,2880
HOEM,7/1/11,4.299159946,4.251079068,0,17,2976
HOEM,8/1/11,2.707291667,3.322838301,0,15.5,2976
HOEM,9/1/11,3.067395833,3.798632707,0,20.4,2880
HOEM,10/1/11,2.836391129,2.991086413,0,14.9,2976
HOEM,11/1/11,2.591631944,1.810371909,0,11.1,2880
HOEM,12/1/11,3.260181452,2.37210905,0,15.3,2976
HOEM,1/1/12,2.458066712,1.286536688,0,6.6,2938
HOEM,2/1/12,2.119809689,1.699400546,0,9,1156
HOEM,9/1/12,1.01595092,1.280958668,0,8.5,163
HOEM,10/1/12,1.194740687,1.163737593,0,9.5,1369
HOEM,11/1/12,2.480479333,1.770922083,0,12.4,2879
HOEM,12/1/12,2.403729839,1.149373026,0,6.6,2976
HOEM,1/1/13,2.424159946,1.43342487,0,7.3,2976
HOEM,2/1/13,1.852678571,2.002655542,0,10.4,2688
HOEM,3/1/13,1.381485215,1.760709352,0,10.9,2976
HOEM,4/1/13,2.315208333,3.064144278,0,15.3,2880
HOEM,5/1/13,2.839986559,3.449078386,0,13.3,2976
HOEM,6/1/13,2.308854167,2.801872806,0,11.3,2880
HOEM,7/1/13,1.914045699,2.809150288,0,13.5,2976
HOEM,8/1/13,2.934139785,3.912937876,0,23,2976
HOEM,9/1/13,3.6965625,4.098536916,0,18,2880
HOEM,10/1/13,1.694952894,2.241117272,0,11.4,2972
HOEM,11/1/13,2.800972222,2.080201355,0,10.2,2880
HOEM,12/1/13,2.860406586,1.329930611,0.1,8.76,2976
HOEM,1/1/14,2.647516801,2.020469065,0,12.84,2976
HOEM,2/1/14,2.830825893,2.202573483,0,11.02,2688
HOEM,3/1/14,2.254237231,2.494739438,0,10.51,2976
HOEM,4/1/14,2.648600694,3.329316674,0,17.74,2880
HOEM,5/1/14,2.293061156,2.96265577,0,13.76,2976
HOEM,6/1/14,2.115899306,2.515883221,0,12.25,2880
HOEM,7/1/14,1.649606855,2.233641865,0,11.47,2976
HOEM,8/1/14,3.780984543,3.672728888,0,15.56,2976
HOEM,9/1/14,3.838510417,3.770551553,0,13.28,2880
HOEM,10/1/14,3.712016129,3.26017677,0,13.08,2976
HOEM,11/1/14,1.639058642,1.066912608,0.01,6.52,648
HOEM,12/1/14,2.933448276,1.262815097,0.72,4.9,29
HOEM,1/1/15,2.778940978,1.528225011,0,9.22,2965
HOEM,2/1/15,3.06484375,2.580913189,0,11.11,2688
HOEM,3/1/15,1.421448253,1.884255265,0,12.16,2976
HOEM,4/1/15,1.738603755,2.730669576,0,52.96,2077
HOEM,5/1/15,1.598835052,2.536099242,0,17.56,2910
HOEM,6/1/15,3.841631944,4.392537252,0,21.8,2880
HOEM,7/1/15,3.303676075,4.022290103,0,16.75,2976
HOEM,8/1/15,3.911028226,4.628457443,0,22.96,2976
HOEM,9/1/15,3.678308887,4.219661021,0,17.71,2318
HOEM,10/1/15,2.878652554,2.902966671,0,14.99,2976
HOEM,11/1/15,3.109958246,2.032475852,0,12.74,2874
HOEM,12/1/15,3.435799731,1.967014194,0.14,15.44,2976
HOEM,1/1/16,3.080682124,1.748932497,0,10.75,2976
HOEM,2/1/16,3.190481322,2.788555467,0.01,13.3,2784
HOEM,3/1/16,1.97640793,2.520697109,0,13.85,2976
HOEM,4/1/16,2.818961806,3.510637326,0,14.18,2880
HOEM,5/1/16,4.343780242,5.340504901,0,24.94,2976
HOEM,6/1/16,1.882777778,2.525354265,0,13.9,2880
HOEM,7/1/16,1.720362903,2.874339922,0,14.71,2976
HOEM,8/1/16,2.891525538,3.958443709,0,24.46,2976
HOEM,9/1/16,2.594274306,3.582064944,0,15.17,2880
HOEM,10/1/16,2.332683339,2.64557172,0,12.28,2959
HOEM,11/1/16,2.250875,1.961494493,0,14.7,2880
HOEM,12/1/16,2.725897177,1.649623456,0,14.24,2976
HOEM,1/1/17,2.793612231,1.509888356,0,9.41,2976
HOEM,2/1/17,2.256302083,1.793129119,0.02,10.84,2688
HOEM,3/1/17,2.312866263,2.851058412,0,13.59,2976
HOEM,4/1/17,4.9623125,4.826079796,0,18.54,2880
HOEM,5/1/17,4.818524866,5.454602794,0,26.78,2976
HOEM,6/1/17,3.224434028,3.566719809,0,15.39,2880
HOEM,7/1/17,4.758991935,4.922209826,0,20.97,2976
HOEM,8/1/17,4.672728495,5.196881574,0,25.71,2976
HOEM,9/1/17,3.733583333,4.329170723,0,18.72,2880
HOEM,10/1/17,3.585016801,3.951126107,0.04,17.22,2976
HOEM,11/1/17,2.816135333,2.36134672,0,15.36,2867
HOEM,12/1/17,2.931768067,1.515752869,0.02,9.58,2975
HOEM,1/1/18,2.576738399,1.359506915,0,8.21,2974
HOEM,2/1/18,2.243508185,2.10496056,0,12.21,2688
HOEM,3/1/18,3.033941532,3.632717096,0,15.54,2976
HOEM,4/1/18,4.434517361,4.996540558,0.02,21.26,2880
HOEM,5/1/18,2.423702957,3.123996008,0,14.54,2976
HOEM,6/1/18,4.219545139,4.245269999,0,17.95,2880
HOEM,7/1/18,4.629375,5.767351029,0.01,25.85,2976
HOEM,8/1/18,2.57172043,3.820507063,0,21.47,2976
HOEM,9/1/18,3.855284722,4.829313898,0,18.83,2880
HOEM,10/1/18,3.971454973,3.841427571,0,18.59,2976
HOEM,11/1/18,3.301017361,2.499260684,0,14.62,2880
HOEM,12/1/18,3.682270133,2.002388623,0.01,10.44,1577